GW2195 Weather Reports


time (UTC)temp
F
wind
direction
speed
knots
gust
knots
rain 1hr
in
rain 24hr
in
rain mn
in
humidity
%
barometer
mb
20260508122554 53 220 0.0 1.7 0.19 0.72 0.72 82 1009.6
20260508122042 53 55 0.0 0.0 0.20 0.72 0.72 82 1009.2
20260508121503 52 63 0.0 0.9 0.20 0.72 0.72 83 1009.1
20260508121052 52 105 0.0 0.9 0.20 0.72 0.72 81 1009.2
20260508120541 51 355 0.0 0.9 0.20 0.72 0.72 76 1009.1
20260508115550 49 72 0.0 1.7 0.19 0.72 0.70 86 1009.1
20260508115038 49 5 0.0 2.6 0.17 0.70 0.69 82 1009.3
20260508114600 50 25 0.0 3.5 0.15 0.68 0.67 82 1009.2
20260508114047 52 36 1.7 3.5 0.13 0.65 0.65 78 1009.4
20260508113536 54 296 0.0 4.3 0.08 0.61 0.60 77 1009.7
20260508112553 57 277 5.2 10.4 0.01 0.54 0.53 75 1009.7
20260508112041 58 251 0.0 4.3 0.00 0.53 0.52 73 1009.3
20260508111501 58 230 1.7 5.2 0.00 0.53 0.52 71 1009.3
20260508111052 58 192 3.5 5.2 0.00 0.53 0.52 73 1009.4
20260508110540 58 168 1.7 4.3 0.00 0.53 0.52 74 1009.3
20260508110006 58 160 0.0 5.2 0.00 0.53 0.52 72 1009.4
20260508105557 58 161 0.9 5.2 0.00 0.53 0.52 72 1009.4
20260508105045 58 190 2.6 6.1 0.00 0.53 0.52 72 1009.3
20260508104504 58 140 0.9 6.1 0.00 0.53 0.52 73 1009.4
20260508104057 58 115 2.6 6.1 0.00 0.53 0.52 72 1009.5
20260508103545 58 232 1.7 5.2 0.00 0.53 0.52 78 1009.5
20260508103011 57 225 1.7 5.2 0.00 0.53 0.52 79 1009.5
20260508102600 56 170 0.0 3.5 0.00 0.53 0.52 77 1009.5
20260508102051 56 221 0.9 5.2 0.00 0.53 0.52 79 1009.6
20260508101513 55 189 1.7 5.2 0.00 0.53 0.52 82 1009.5
20260508101058 55 201 0.0 3.5 0.00 0.53 0.52 85 1009.4
20260508100548 54 116 0.0 1.7 0.00 0.53 0.52 87 1009.4
20260508100002 54 336 0.0 1.7 0.00 0.53 0.52 87 1009.4
20260508095553 53 171 0.0 0.9 0.00 0.53 0.52 90 1009.4
20260508095043 53 334 0.0 0.9 0.00 0.53 0.52 89 1009.3
20260508094528 53 321 0.0 0.0 0.00 0.53 0.52 90 1009.4
20260508094100 53 239 0.0 0.9 0.00 0.53 0.52 90 1009.5
20260508093552 53 223 0.0 0.9 0.00 0.53 0.52 89 1009.6
20260508093011 53 298 0.0 0.9 0.00 0.53 0.52 90 1009.6
20260508092558 53 229 0.0 1.7 0.00 0.53 0.52 91 1009.5
20260508092047 52 237 0.0 1.7 0.00 0.53 0.52 91 1009.6
20260508091510 52 180 0.0 0.9 0.00 0.53 0.52 90 1009.6
20260508091057 52 157 0.0 0.9 0.00 0.53 0.52 90 1009.5
20260508090545 52 201 0.0 0.9 0.00 0.53 0.52 90 1009.4
20260508090003 52 180 0.0 0.9 0.00 0.53 0.52 90 1009.6
20260508085553 52 180 0.0 2.6 0.00 0.53 0.52 90 1009.4
20260508085041 52 159 0.0 4.3 0.00 0.53 0.52 91 1009.5
20260508084502 52 210 0.0 2.6 0.00 0.53 0.52 92 1009.4
20260508084052 52 208 0.0 2.6 0.00 0.53 0.52 92 1009.3
20260508083540 52 198 0.9 3.5 0.00 0.53 0.52 93 1009.2
20260508083007 52 188 0.9 1.7 0.00 0.53 0.52 94 1009.0
20260508082559 52 196 0.0 2.6 0.00 0.53 0.52 94 1008.9
20260508082046 52 202 0.0 1.7 0.00 0.53 0.52 94 1008.8
20260508081524 51 181 0.0 0.9 0.00 0.53 0.52 94 1008.8
20260508081059 51 185 0.0 0.9 0.00 0.53 0.52 94 1008.7
20260508080545 51 171 0.0 0.9 0.04 0.53 0.52 95 1008.7
20260508080106 51 103 0.0 0.0 0.07 0.53 0.52 94 1008.6
20260508075549 50 144 0.0 0.0 0.12 0.53 0.52 94 1008.7
20260508075037 50 144 0.0 0.0 0.13 0.53 0.52 94 1008.8
20260508074600 50 144 0.0 0.0 0.13 0.53 0.52 94 1008.7
20260508074051 49 76 0.0 0.0 0.18 0.53 0.52 94 1008.9
20260508073537 49 76 0.0 0.0 0.24 0.53 0.52 94 1008.8
20260508073003 49 15 0.0 0.0 0.31 0.53 0.52 94 1008.8
20260508072553 49 15 0.0 0.9 0.41 0.53 0.52 94 1008.8
20260508072043 49 15 0.0 0.9 0.44 0.53 0.52 94 1008.8
20260508071507 49 23 0.0 0.9 0.45 0.53 0.52 93 1008.8
20260508071052 49 74 0.0 2.6 0.44 0.52 0.51 93 1008.9
20260508070541 49 65 0.0 2.6 0.43 0.49 0.48 93 1008.9
20260508070105 49 38 0.0 0.0 0.39 0.45 0.44 93 1009.1
20260508065548 49 316 0.0 0.9 0.35 0.41 0.40 93 1009.0
20260508065037 49 327 0.0 0.9 0.35 0.40 0.39 93 1008.9
20260508064507 49 342 0.0 3.5 0.33 0.39 0.38 93 1009.0
20260508064057 49 316 0.0 4.3 0.28 0.35 0.34 93 1008.9
20260508063544 49 188 0.0 4.3 0.23 0.28 0.28 93 1009.7
20260508063002 49 187 0.0 2.6 0.14 0.20 0.19 93 1009.5
20260508062553 49 201 0.0 2.6 0.06 0.12 0.11 93 1009.3
20260508062041 49 263 0.0 4.3 0.03 0.09 0.08 93 1008.7
20260508061514 49 341 0.0 5.2 0.02 0.08 0.07 92 1008.5
20260508061101 49 323 1.7 5.2 0.02 0.08 0.07 92 1008.3
20260508060549 50 71 0.0 2.6 0.01 0.06 0.06 92 1008.9
20260508060016 50 229 0.0 4.3 0.00 0.06 0.05 92 1008.9
20260508055559 50 218 2.6 4.3 0.00 0.06 0.05 92 1008.7
20260508055043 50 180 0.0 0.9 0.00 0.06 0.05 92 1008.2
20260508054503 50 46 0.0 0.0 0.00 0.06 0.05 92 1008.0
20260508054054 50 69 0.0 0.0 0.00 0.06 0.05 92 1007.9
20260508053542 50 70 0.0 0.0 0.00 0.06 0.05 92 1007.9
20260508053009 49 70 0.0 0.0 0.00 0.06 0.05 92 1007.9
20260508052557 50 70 0.0 0.0 0.00 0.06 0.05 92 1007.7
20260508052045 49 71 0.0 0.0 0.00 0.06 0.05 91 1007.7
20260508051504 49 56 0.0 0.0 0.00 0.06 0.05 91 1007.6
20260508051054 49 56 0.0 0.0 0.00 0.06 0.05 91 1007.6
20260508050542 49 30 0.0 1.7 0.01 0.06 0.05 91 1007.7
20260508050000 49 25 0.0 1.7 0.01 0.06 0.05 91 1007.5
20260508045551 50 50 0.0 1.7 0.02 0.06 0.05 91 1007.6
20260508045041 50 19 0.0 0.9 0.05 0.06 0.05 91 1007.8
20260508044509 50 40 0.0 0.9 0.05 0.06 0.05 90 1007.9
20260508044059 50 30 0.0 0.9 0.05 0.06 0.05 90 1007.9
20260508043548 50 344 0.0 0.9 0.05 0.06 0.05 89 1007.9
20260508043006 50 355 0.0 0.9 0.05 0.06 0.05 89 1008.1
20260508042559 50 344 0.0 0.9 0.05 0.06 0.05 88 1008.0
20260508042046 50 253 0.0 1.7 0.05 0.06 0.05 88 1007.8
20260508041504 50 234 0.0 2.6 0.05 0.06 0.05 88 1007.6
20260508041054 50 209 0.0 2.6 0.05 0.06 0.05 88 1007.5
20260508040543 50 171 0.0 6.1 0.04 0.05 0.04 88 1007.5
20260508040002 51 17 2.6 6.1 0.04 0.05 0.04 86 1007.6
20260508035551 51 5 2.6 4.3 0.03 0.04 0.03 85 1007.8
20260508035036 51 28 0.0 0.0 0.00 0.01 0.00 82 1008.4
20260508034508 51 5 0.0 0.0 0.00 0.01 0.00 82 1008.5
20260508034056 51 5 0.0 1.7 0.00 0.01 0.00 82 1008.3
20260508033544 51 350 0.0 1.7 0.00 0.01 0.00 82 1008.2
20260508033003 51 355 0.0 1.7 0.00 0.01 0.00 82 1008.1
20260508032554 51 336 0.0 1.7 0.00 0.01 0.00 81 1008.2
20260508032042 51 345 0.0 0.9 0.00 0.01 0.00 80 1008.3
20260508031501 51 344 0.0 0.9 0.00 0.01 0.00 82 1008.4
20260508031052 51 17 0.0 0.0 0.00 0.01 0.00 83 1008.3
20260508030541 51 17 0.0 0.0 0.00 0.01 0.00 82 1008.3
20260508030007 51 17 0.0 0.0 0.00 0.01 0.00 81 1008.2
20260508025557 51 17 0.0 0.0 0.00 0.01 0.00 81 1008.1
20260508025045 51 16 0.0 0.0 0.00 0.01 0.00 81 1008.0
20260508024505 51 355 0.0 0.0 0.00 0.01 0.00 82 1008.2
20260508024059 51 355 0.0 0.0 0.00 0.01 0.00 82 1008.3
20260508023544 51 355 0.0 0.0 0.00 0.01 0.00 82 1008.3
20260508023005 51 355 0.0 0.0 0.00 0.01 0.00 83 1008.3
20260508022552 51 355 0.0 0.0 0.00 0.01 0.00 82 1008.3
20260508022041 51 355 0.0 0.0 0.00 0.01 0.00 83 1008.3
20260508021515 51 355 0.0 0.0 0.00 0.01 0.00 83 1008.2
20260508021100 52 355 0.0 0.0 0.00 0.01 0.00 83 1008.1
20260508020549 52 355 0.0 0.0 0.00 0.01 0.00 83 1008.3
20260508020010 52 355 0.0 0.9 0.00 0.01 0.00 83 1008.5
20260508015558 51 5 0.0 0.9 0.00 0.01 0.00 84 1008.5
20260508015045 51 28 0.0 0.0 0.00 0.01 0.00 83 1008.5
20260508014504 51 28 0.0 0.0 0.00 0.01 0.00 82 1008.5
20260508014054 51 28 0.0 0.9 0.00 0.01 0.00 82 1008.6
20260508013542 51 28 0.0 0.9 0.00 0.01 0.00 83 1008.6
20260508013109 51 46 0.0 0.0 0.00 0.01 0.00 83 1008.7
20260508012551 51 46 0.0 0.0 0.00 0.01 0.00 82 1008.7
20260508012039 51 46 0.0 0.9 0.00 0.01 0.00 82 1008.7
20260508011513 51 46 0.0 0.9 0.00 0.01 0.00 83 1008.7
20260508011102 51 69 0.0 0.0 0.00 0.01 0.00 84 1008.9
20260508010547 51 69 0.0 0.0 0.00 0.01 0.00 84 1008.9
20260508010006 51 69 0.0 0.0 0.00 0.01 0.00 83 1008.9
20260508005557 51 69 0.0 0.0 0.00 0.01 0.00 83 1008.9
20260508005044 51 69 0.0 0.0 0.00 0.01 0.00 83 1009.1
20260508004505 51 69 0.0 0.0 0.00 0.01 0.00 83 1009.0
20260508004056 51 69 0.0 0.9 0.00 0.01 0.00 84 1009.2
20260508003543 50 69 0.0 0.9 0.00 0.01 0.00 84 1009.5
20260508003007 50 27 0.0 0.0 0.00 0.01 0.00 84 1009.5
20260508002558 50 27 0.0 0.0 0.00 0.01 0.00 84 1009.4
20260508002046 50 27 0.0 0.0 0.00 0.01 0.00 83 1009.3
20260508001515 50 27 0.0 0.0 0.00 0.01 0.00 83 1009.3
20260508001056 50 27 0.0 0.9 0.00 0.01 0.00 84 1009.4
20260508000545 50 28 0.0 0.9 0.00 0.01 0.00 83 1009.5
20260508000005 51 22 0.0 0.0 0.00 0.01 0.00 82 1009.5
20260507235553 51 22 0.0 0.0 0.00 0.01 0.00 82 1009.5
20260507235041 51 55 0.0 0.0 0.00 0.01 0.00 81 1009.6
20260507234501 51 9 0.0 0.0 0.00 0.01 0.00 81 1009.8
20260507234052 51 9 0.0 0.9 0.00 0.01 0.00 81 1009.7
20260507233541 52 30 0.0 0.9 0.00 0.01 0.00 80 1009.9
20260507233101 52 21 0.0 0.9 0.00 0.01 0.00 80 1010.0
20260507232548 53 55 0.0 0.0 0.00 0.01 0.00 79 1010.0
20260507232036 53 5 0.0 0.9 0.00 0.01 0.00 78 1010.1
20260507231510 53 5 0.0 0.9 0.00 0.01 0.00 77 1010.1
20260507231059 53 51 0.0 0.9 0.00 0.01 0.00 77 1010.1
20260507230544 54 20 0.0 0.0 0.00 0.01 0.00 77 1010.1
20260507230004 54 19 0.0 0.0 0.00 0.01 0.01 76 1010.4
20260507225552 54 19 0.0 0.0 0.00 0.01 0.01 76 1010.3
20260507225040 54 360 0.0 0.9 0.00 0.01 0.01 75 1010.4
20260507224520 54 5 0.0 0.9 0.00 0.01 0.01 75 1010.4
20260507224101 55 351 0.0 0.9 0.00 0.01 0.01 75 1010.5
20260507223548 55 317 0.0 2.6 0.00 0.01 0.01 74 1010.4
20260507223007 55 346 0.0 2.6 0.00 0.01 0.01 74 1010.4
20260507222558 55 332 0.0 2.6 0.00 0.01 0.01 74 1010.4
20260507222049 55 343 0.0 1.7 0.00 0.01 0.01 74 1010.4
20260507221511 55 9 0.0 1.7 0.00 0.01 0.01 74 1010.4
20260507221056 55 346 0.0 0.9 0.00 0.01 0.01 74 1010.4
20260507220546 55 360 0.0 0.9 0.00 0.01 0.01 74 1010.4
20260507220011 55 22 0.0 1.7 0.00 0.01 0.01 75 1010.4
20260507215602 55 346 0.0 1.7 0.00 0.01 0.01 76 1010.4
20260507215051 55 328 0.0 1.7 0.00 0.01 0.01 77 1010.4
20260507214509 55 355 0.0 0.9 0.00 0.01 0.01 78 1010.4
20260507214100 55 345 0.0 0.9 0.00 0.01 0.01 78 1010.4
20260507213548 55 338 0.0 0.9 0.00 0.01 0.01 78 1010.4
20260507213006 55 42 0.0 0.0 0.00 0.01 0.01 77 1010.2
20260507212555 55 43 0.0 0.0 0.00 0.01 0.01 78 1010.3
20260507212043 55 44 0.0 0.0 0.00 0.01 0.01 77 1010.2
20260507211508 56 42 0.0 0.0 0.00 0.01 0.01 75 1010.1
20260507211051 56 24 0.0 0.0 0.00 0.01 0.01 76 1010.0
20260507210538 56 24 0.0 2.6 0.00 0.01 0.01 74 1009.9
20260507210059 56 19 0.0 3.5 0.00 0.01 0.01 74 1009.7
20260507205548 56 350 0.9 3.5 0.00 0.01 0.01 74 1009.7
20260507205035 56 11 0.0 0.9 0.00 0.01 0.01 74 1009.6
20260507204505 57 342 0.0 0.9 0.00 0.01 0.01 73 1009.4
20260507204056 57 224 0.0 0.9 0.00 0.01 0.01 73 1009.3
20260507203544 57 355 0.0 0.9 0.00 0.01 0.01 72 1009.1
20260507203002 57 360 0.0 0.9 0.00 0.01 0.01 71 1009.1
20260507202552 58 355 0.0 0.9 0.00 0.01 0.01 71 1009.0
20260507202041 58 340 0.0 0.9 0.00 0.01 0.01 71 1009.0
20260507201502 58 5 0.0 0.9 0.00 0.01 0.01 70 1008.8
20260507201052 58 22 0.0 1.7 0.00 0.01 0.01 70 1008.8
20260507200540 59 344 0.0 1.7 0.00 0.01 0.01 69 1008.7
20260507200008 59 345 0.0 3.5 0.00 0.01 0.01 68 1008.7
20260507195558 59 341 0.0 3.5 0.00 0.01 0.01 68 1008.7
20260507195046 60 330 0.9 3.5 0.00 0.01 0.01 66 1008.6
20260507194506 60 360 0.0 2.6 0.00 0.01 0.01 66 1008.5
20260507194056 60 346 0.0 3.5 0.00 0.01 0.01 66 1008.4
20260507193544 61 329 0.0 3.5 0.00 0.01 0.01 64 1008.4
20260507193012 61 30 0.0 3.5 0.00 0.01 0.01 64 1008.3
20260507192601 61 5 0.0 2.6 0.00 0.01 0.01 64 1008.2
20260507192049 61 5 0.9 5.2 0.00 0.01 0.01 63 1008.2
20260507191516 62 321 0.9 5.2 0.00 0.01 0.01 62 1008.2
20260507191100 62 5 0.0 1.7 0.00 0.01 0.01 62 1008.1
20260507190549 62 355 0.0 2.6 0.00 0.01 0.01 61 1008.0
20260507190007 63 5 0.0 2.6 0.00 0.01 0.01 60 1007.9
20260507185558 63 13 0.0 2.6 0.00 0.01 0.01 59 1007.8
20260507185046 64 92 0.0 2.6 0.00 0.01 0.01 58 1007.8
20260507184505 64 282 0.0 4.3 0.00 0.01 0.01 57 1007.7
20260507184056 64 5 0.0 4.3 0.00 0.01 0.01 57 1007.7
20260507183544 65 307 0.0 2.6 0.00 0.01 0.01 56 1007.6
20260507183108 65 346 0.0 5.2 0.00 0.01 0.01 54 1007.6
20260507182551 65 12 0.9 5.2 0.00 0.01 0.01 53 1007.5
20260507182040 66 89 0.0 5.2 0.00 0.01 0.01 52 1007.5
20260507181509 66 263 0.0 3.5 0.00 0.01 0.01 51 1007.4
20260507181102 67 276 0.0 3.5 0.00 0.01 0.01 50 1007.5
20260507180547 67 235 0.0 5.2 0.00 0.01 0.01 48 1007.4
20260507180004 67 230 1.7 5.2 0.00 0.01 0.01 48 1007.4
20260507175554 67 211 0.0 4.3 0.00 0.01 0.01 48 1007.4
20260507175042 67 49 0.0 4.3 0.00 0.01 0.01 47 1007.3
20260507174505 67 196 0.9 3.5 0.00 0.01 0.01 46 1007.3
20260507174052 68 66 0.0 4.3 0.00 0.01 0.01 47 1007.3
20260507173543 68 303 0.0 4.3 0.00 0.01 0.01 47 1007.4
20260507173109 68 328 0.0 2.6 0.00 0.01 0.01 45 1007.5
20260507172552 69 25 0.0 2.6 0.00 0.01 0.01 45 1007.3
20260507172040 69 228 0.0 2.6 0.00 0.01 0.01 46 1007.4
20260507171600 69 5 0.0 2.6 0.00 0.01 0.01 44 1007.3
20260507171048 69 335 0.9 2.6 0.00 0.01 0.01 45 1007.4
20260507170537 69 44 0.0 3.5 0.00 0.01 0.01 45 1007.3
20260507170011 69 167 0.9 6.1 0.00 0.01 0.01 46 1007.3
20260507165554 69 269 0.9 6.1 0.00 0.01 0.01 45 1007.2
20260507165043 69 340 1.7 8.7 0.00 0.01 0.01 45 1007.2
20260507164511 70 178 4.3 8.7 0.00 0.01 0.01 44 1007.2
20260507164104 70 191 0.9 4.3 0.00 0.01 0.01 43 1007.2
20260507163552 70 259 0.0 6.1 0.00 0.01 0.01 46 1007.2
20260507163006 70 298 0.0 4.3 0.00 0.01 0.01 47 1007.3
20260507162557 69 171 1.7 4.3 0.00 0.01 0.01 47 1007.3
20260507162046 69 278 0.0 1.7 0.00 0.01 0.01 47 1007.3
20260507161505 68 245 0.0 2.6 0.01 0.01 0.01 48 1007.3
20260507161054 68 244 0.0 3.5 0.01 0.01 0.01 50 1007.4
20260507160542 67 315 0.9 3.5 0.01 0.01 0.01 50 1007.4
20260507160103 66 224 0.0 3.5 0.01 0.01 0.01 50 1007.4
20260507155550 66 205 0.0 1.7 0.01 0.01 0.01 52 1007.5
20260507155044 64 246 0.0 0.9 0.01 0.01 0.01 53 1007.5
20260507154508 63 61 0.0 0.9 0.01 0.01 0.01 61 1007.5
20260507154057 63 61 0.0 0.9 0.01 0.01 0.01 59 1007.5
20260507153544 62 5 0.0 0.9 0.01 0.01 0.01 60 1007.6
20260507153000 62 355 0.0 1.7 0.01 0.01 0.01 66 1007.7
20260507152552 62 34 0.0 1.7 0.01 0.01 0.01 72 1007.7
20260507152039 63 109 0.0 1.7 0.01 0.01 0.01 68 1007.8
20260507151601 63 49 0.0 3.5 0.00 0.00 0.00 64 1007.9
20260507151049 64 92 0.0 5.2 0.00 0.00 0.00 62 1008.0
20260507150539 65 190 1.7 5.2 0.00 0.00 0.00 52 1008.1
20260507150005 66 144 0.9 5.2 0.00 0.00 0.00 50 1008.1
20260507145556 66 136 0.0 4.3 0.00 0.00 0.00 49 1007.9
20260507145043 66 140 1.7 4.3 0.00 0.00 0.00 48 1008.1
20260507144504 65 167 0.9 8.7 0.00 0.00 0.00 49 1008.2
20260507144054 65 168 1.7 8.7 0.00 0.00 0.00 52 1008.2
20260507143541 64 90 0.9 7.0 0.00 0.00 0.00 55 1008.2
20260507143108 64 11 0.9 8.7 0.00 0.00 0.00 56 1008.2
20260507142550 63 102 1.7 12.2 0.00 0.00 0.00 56 1008.2
20260507142038 62 65 1.7 12.2 0.00 0.00 0.00 60 1008.2
20260507141508 60 317 3.5 10.4 0.00 0.00 0.00 63 1008.2
20260507141059 60 203 2.6 10.4 0.00 0.00 0.00 65 1008.4
20260507140548 59 73 4.3 8.7 0.00 0.00 0.00 67 1008.4
20260507140007 59 27 1.7 8.7 0.00 0.00 0.00 66 1008.4
20260507135555 59 27 2.6 9.6 0.00 0.00 0.00 65 1008.5
20260507135044 60 57 3.5 11.3 0.00 0.00 0.00 64 1008.6
20260507134513 60 109 4.3 11.3 0.00 0.00 0.00 62 1008.6
20260507134001 60 44 4.3 10.4 0.00 0.00 0.00 61 1008.6
20260507133552 60 32 3.5 10.4 0.00 0.00 0.00 62 1008.7
20260507133010 61 10 3.5 9.6 0.00 0.00 0.00 62 1008.8
20260507132600 61 149 3.5 9.6 0.00 0.00 0.00 61 1008.7
20260507132051 61 142 4.3 9.6 0.00 0.00 0.00 59 1008.8
20260507131509 62 156 1.7 7.0 0.00 0.00 0.00 60 1008.7
20260507131059 62 138 0.0 11.3 0.00 0.00 0.00 56 1008.8
20260507130547 63 130 4.3 11.3 0.00 0.00 0.00 50 1008.9
20260507130005 63 146 1.7 16.5 0.00 0.00 0.00 51 1008.8
20260507125556 64 107 6.1 16.5 0.00 0.00 0.00 53 1008.9
20260507125042 65 157 5.2 13.0 0.00 0.00 0.00 52 1008.9
20260507124503 66 175 4.3 7.0 0.00 0.00 0.00 48 1008.8
20260507124053 66 217 0.9 5.2 0.00 0.00 0.00 46 1008.6
20260507123542 66 175 2.6 7.0 0.00 0.00 0.00 45 1008.6
20260507123010 67 248 3.5 7.8 0.00 0.00 0.00 45 1008.7